Time,TemperatureF,DewpointF,PressureIn,WindDirection,WindDirectionDegrees,WindSpeedMPH,WindSpeedGustMPH,Humidity,HourlyPrecipIn,Conditions,Clouds,dailyrainin,SolarRadiationWatts/m^2,SoftwareType,DateUTC
2013-03-18 00:15:00,34.9,33.0,29.77,ENE,71,0.0,0.0,91,0.00,,,0.00,0,weatherlink.com 1.10,2013-03-18 05:15:00,
2013-03-18 00:32:00,35.0,33.0,29.78,ENE,71,0.0,0.0,91,0.00,,,0.00,0,weatherlink.com 1.10,2013-03-18 05:32:00,
2013-03-18 00:48:00,35.0,33.0,29.77,ENE,71,0.0,0.0,91,0.00,,,0.00,0,weatherlink.com 1.10,2013-03-18 05:48:00,
2013-03-18 01:05:00,35.0,33.0,29.76,ENE,70,0.0,4.0,92,0.00,,,0.00,0,weatherlink.com 1.10,2013-03-18 06:05:00,
2013-03-18 01:21:00,35.0,33.0,29.77,ENE,70,0.0,0.0,92,0.00,,,0.00,0,weatherlink.com 1.10,2013-03-18 06:21:00,
2013-03-18 01:38:00,35.0,33.0,29.77,ENE,70,0.0,0.0,92,0.00,,,0.00,0,weatherlink.com 1.10,2013-03-18 06:38:00,
2013-03-18 01:54:00,35.0,33.0,29.80,ENE,70,0.0,0.0,92,0.00,,,0.00,0,weatherlink.com 1.10,2013-03-18 06:54:00,
2013-03-18 02:11:00,35.1,33.0,29.81,ENE,69,0.0,3.0,92,0.00,,,0.00,0,weatherlink.com 1.10,2013-03-18 07:11:00,
2013-03-18 02:28:00,35.2,33.0,29.82,NE,52,0.0,2.0,92,0.00,,,0.00,0,weatherlink.com 1.10,2013-03-18 07:28:00,
2013-03-18 02:44:00,35.1,33.0,29.80,NE,51,0.0,1.0,93,0.00,,,0.00,0,weatherlink.com 1.10,2013-03-18 07:44:00,
2013-03-18 03:01:00,35.1,33.0,29.81,NE,51,0.0,0.0,93,0.00,,,0.00,0,weatherlink.com 1.10,2013-03-18 08:01:00,
2013-03-18 03:17:00,35.1,33.0,29.81,NE,51,0.0,5.0,93,0.00,,,0.00,0,weatherlink.com 1.10,2013-03-18 08:17:00,
2013-03-18 03:33:00,35.0,33.0,29.78,NE,51,0.0,0.0,93,0.00,,,0.00,0,weatherlink.com 1.10,2013-03-18 08:33:00,
2013-03-18 03:50:00,35.0,33.0,29.77,NE,51,0.0,0.0,93,0.00,,,0.00,0,weatherlink.com 1.10,2013-03-18 08:50:00,
2013-03-18 04:07:00,34.9,33.0,29.78,NE,48,0.0,5.0,93,0.00,,,0.00,0,weatherlink.com 1.10,2013-03-18 09:07:00,
2013-03-18 04:23:00,35.0,33.0,29.78,NE,48,0.0,0.0,93,0.00,,,0.00,0,weatherlink.com 1.10,2013-03-18 09:23:00,
2013-03-18 04:39:00,34.9,33.0,29.78,NNE,32,0.0,7.0,94,0.00,,,0.00,0,weatherlink.com 1.10,2013-03-18 09:39:00,
2013-03-18 04:55:00,34.9,33.0,29.79,North,5,0.0,6.0,94,0.00,,,0.00,0,weatherlink.com 1.10,2013-03-18 09:55:00,
2013-03-18 05:13:00,34.9,33.0,29.80,NNW,340,5.0,10.0,94,0.00,,,0.00,0,weatherlink.com 1.10,2013-03-18 10:13:00,
2013-03-18 05:29:00,34.9,33.0,29.80,NNW,339,2.0,7.0,94,0.00,,,0.00,0,weatherlink.com 1.10,2013-03-18 10:29:00,
2013-03-18 05:45:00,34.9,33.0,29.80,NNW,336,0.0,8.0,94,0.00,,,0.00,0,weatherlink.com 1.10,2013-03-18 10:45:00,
2013-03-18 06:02:00,35.1,34.0,29.81,NW,323,6.0,7.0,94,0.00,,,0.00,0,weatherlink.com 1.10,2013-03-18 11:02:00,
2013-03-18 06:18:00,35.2,33.0,29.82,NW,316,0.0,10.0,93,0.00,,,0.00,0,weatherlink.com 1.10,2013-03-18 11:18:00,
2013-03-18 06:35:00,35.3,34.0,29.82,NW,306,0.0,10.0,94,0.00,,,0.00,0,weatherlink.com 1.10,2013-03-18 11:35:00,
2013-03-18 06:51:00,35.4,34.0,29.83,NW,305,0.0,7.0,93,0.00,,,0.00,0,weatherlink.com 1.10,2013-03-18 11:51:00,
2013-03-18 07:08:00,35.5,34.0,29.84,NW,305,0.0,8.0,93,0.00,,,0.00,0,weatherlink.com 1.10,2013-03-18 12:08:00,
2013-03-18 07:24:00,35.7,34.0,29.84,NW,305,10.0,10.0,93,0.00,,,0.00,0,weatherlink.com 1.10,2013-03-18 12:24:00,
2013-03-18 07:40:00,36.0,34.0,29.84,NW,304,5.0,10.0,93,0.00,,,0.00,0,weatherlink.com 1.10,2013-03-18 12:40:00,
2013-03-18 07:57:00,36.2,34.0,29.86,WSW,258,7.0,11.0,93,0.00,,,0.00,7,weatherlink.com 1.10,2013-03-18 12:57:00,
2013-03-18 08:14:00,36.2,34.0,29.86,West,264,6.0,13.0,93,0.00,,,0.00,37,weatherlink.com 1.10,2013-03-18 13:14:00,
2013-03-18 08:30:00,36.6,35.0,29.86,WNW,284,1.0,14.0,93,0.00,,,0.00,84,weatherlink.com 1.10,2013-03-18 13:30:00,
2013-03-18 08:47:00,37.8,35.0,29.87,West,278,4.0,15.0,91,0.00,,,0.00,46,weatherlink.com 1.10,2013-03-18 13:47:00,
2013-03-18 09:03:00,38.7,35.0,29.87,West,270,4.0,16.0,87,0.00,,,0.00,167,weatherlink.com 1.10,2013-03-18 14:03:00,
2013-03-18 09:20:00,39.6,35.0,29.88,WNW,293,0.0,19.0,82,0.00,,,0.00,244,weatherlink.com 1.10,2013-03-18 14:20:00,
2013-03-18 09:37:00,40.6,32.0,29.89,WNW,294,2.0,20.0,72,0.00,,,0.00,218,weatherlink.com 1.10,2013-03-18 14:37:00,
2013-03-18 09:53:00,41.3,30.0,29.90,WNW,298,5.0,18.0,64,0.00,,,0.00,63,weatherlink.com 1.10,2013-03-18 14:53:00,
2013-03-18 10:09:00,42.0,30.0,29.90,WNW,292,2.0,19.0,62,0.00,,,0.00,216,weatherlink.com 1.10,2013-03-18 15:09:00,
2013-03-18 10:26:00,42.7,29.0,29.91,WNW,302,2.0,19.0,58,0.00,,,0.00,339,weatherlink.com 1.10,2013-03-18 15:26:00,
2013-03-18 10:43:00,43.8,30.0,29.91,WNW,284,10.0,12.0,59,0.00,,,0.00,410,weatherlink.com 1.10,2013-03-18 15:43:00,
2013-03-18 10:59:00,44.6,30.0,29.91,West,274,14.0,18.0,57,0.00,,,0.00,547,weatherlink.com 1.10,2013-03-18 15:59:00,
2013-03-18 11:16:00,44.6,29.0,29.92,NW,313,0.0,12.0,54,0.00,,,0.00,656,weatherlink.com 1.10,2013-03-18 16:16:00,
2013-03-18 11:33:00,46.1,31.0,29.93,NW,316,3.0,11.0,56,0.00,,,0.00,700,weatherlink.com 1.10,2013-03-18 16:33:00,
2013-03-18 11:50:00,46.7,32.0,29.93,West,271,9.0,12.0,56,0.00,,,0.00,731,weatherlink.com 1.10,2013-03-18 16:50:00,
2013-03-18 12:07:00,48.0,33.0,29.93,WNW,297,6.0,13.0,56,0.00,,,0.00,770,weatherlink.com 1.10,2013-03-18 17:07:00,
2013-03-18 12:23:00,49.0,33.0,29.92,WNW,288,11.0,13.0,54,0.00,,,0.00,788,weatherlink.com 1.10,2013-03-18 17:23:00,
2013-03-18 12:39:00,49.3,31.0,29.93,NW,319,1.0,16.0,49,0.00,,,0.00,809,weatherlink.com 1.10,2013-03-18 17:39:00,
2013-03-18 12:55:00,49.5,31.0,29.92,NW,311,2.0,19.0,48,0.00,,,0.00,819,weatherlink.com 1.10,2013-03-18 17:55:00,
2013-03-18 13:14:00,50.3,32.0,29.93,West,269,5.0,15.0,49,0.00,,,0.00,828,weatherlink.com 1.10,2013-03-18 18:14:00,
2013-03-18 13:30:00,50.4,31.0,29.93,WNW,290,3.0,10.0,48,0.00,,,0.00,842,weatherlink.com 1.10,2013-03-18 18:30:00,
2013-03-18 13:47:00,51.9,31.0,29.92,WNW,299,7.0,18.0,45,0.00,,,0.00,835,weatherlink.com 1.10,2013-03-18 18:47:00,
2013-03-18 14:03:00,52.6,31.0,29.92,North,10,6.0,17.0,43,0.00,,,0.00,831,weatherlink.com 1.10,2013-03-18 19:03:00,
2013-03-18 14:19:00,52.5,30.0,29.92,NNW,341,6.0,19.0,42,0.00,,,0.00,861,weatherlink.com 1.10,2013-03-18 19:19:00,
2013-03-18 14:35:00,53.5,30.0,29.91,WSW,257,8.0,17.0,41,0.00,,,0.00,828,weatherlink.com 1.10,2013-03-18 19:35:00,
2013-03-18 14:52:00,54.5,30.0,29.91,WNW,285,1.0,28.0,39,0.00,,,0.00,156,weatherlink.com 1.10,2013-03-18 19:52:00,
2013-03-18 15:09:00,55.1,29.0,29.91,WNW,290,9.0,21.0,37,0.00,,,0.00,777,weatherlink.com 1.10,2013-03-18 20:09:00,
2013-03-18 15:25:00,54.8,28.0,29.90,West,279,10.0,17.0,36,0.00,,,0.00,742,weatherlink.com 1.10,2013-03-18 20:25:00,
2013-03-18 15:40:00,53.8,29.0,29.91,WNW,290,7.0,15.0,38,0.00,,,0.00,729,weatherlink.com 1.10,2013-03-18 20:40:00,
2013-03-18 15:57:00,53.9,28.0,29.90,WNW,300,1.0,11.0,37,0.00,,,0.00,687,weatherlink.com 1.10,2013-03-18 20:57:00,
2013-03-18 16:13:00,54.4,27.0,29.91,West,281,9.0,19.0,35,0.00,,,0.00,673,weatherlink.com 1.10,2013-03-18 21:13:00,
2013-03-18 16:29:00,54.1,26.0,29.91,WNW,298,1.0,17.0,33,0.00,,,0.00,596,weatherlink.com 1.10,2013-03-18 21:29:00,
2013-03-18 16:45:00,54.8,28.0,29.92,West,260,1.0,19.0,35,0.00,,,0.00,559,weatherlink.com 1.10,2013-03-18 21:45:00,
2013-03-18 17:02:00,54.5,26.0,29.92,WNW,282,9.0,15.0,33,0.00,,,0.00,494,weatherlink.com 1.10,2013-03-18 22:02:00,
2013-03-18 17:18:00,54.1,26.0,29.93,NW,320,10.0,18.0,33,0.00,,,0.00,448,weatherlink.com 1.10,2013-03-18 22:18:00,
2013-03-18 17:34:00,53.8,25.0,29.92,WNW,295,4.0,17.0,33,0.00,,,0.00,396,weatherlink.com 1.10,2013-03-18 22:34:00,
2013-03-18 17:50:00,53.6,25.0,29.93,West,274,6.0,19.0,33,0.00,,,0.00,336,weatherlink.com 1.10,2013-03-18 22:50:00,
2013-03-18 18:07:00,52.4,23.0,29.93,WSW,250,1.0,19.0,32,0.00,,,0.00,272,weatherlink.com 1.10,2013-03-18 23:07:00,
2013-03-18 18:23:00,51.9,24.0,29.94,West,277,11.0,20.0,34,0.00,,,0.00,207,weatherlink.com 1.10,2013-03-18 23:23:00,
2013-03-18 18:39:00,50.8,23.0,29.95,WNW,286,4.0,22.0,33,0.00,,,0.00,137,weatherlink.com 1.10,2013-03-18 23:39:00,
2013-03-18 18:55:00,49.9,23.0,29.96,WNW,294,1.0,14.0,35,0.00,,,0.00,74,weatherlink.com 1.10,2013-03-18 23:55:00,
2013-03-18 19:13:00,48.7,24.0,29.96,WNW,288,0.0,16.0,37,0.00,,,0.00,28,weatherlink.com 1.10,2013-03-19 00:13:00,
2013-03-18 19:29:00,47.8,23.0,29.97,NW,314,2.0,8.0,38,0.00,,,0.00,7,weatherlink.com 1.10,2013-03-19 00:29:00,
2013-03-18 19:45:00,46.9,24.0,29.98,NW,313,0.0,2.0,40,0.00,,,0.00,0,weatherlink.com 1.10,2013-03-19 00:45:00,
2013-03-18 20:02:00,45.7,23.0,29.99,NW,313,1.0,1.0,41,0.00,,,0.00,0,weatherlink.com 1.10,2013-03-19 01:02:00,
2013-03-18 20:18:00,44.7,23.0,30.00,NW,313,0.0,2.0,42,0.00,,,0.00,0,weatherlink.com 1.10,2013-03-19 01:18:00,
2013-03-18 20:34:00,43.8,23.0,30.00,NW,313,0.0,0.0,44,0.00,,,0.00,0,weatherlink.com 1.10,2013-03-19 01:34:00,
2013-03-18 20:50:00,42.8,23.0,30.00,NW,313,0.0,0.0,45,0.00,,,0.00,0,weatherlink.com 1.10,2013-03-19 01:50:00,
2013-03-18 21:07:00,41.8,23.0,30.01,NW,313,0.0,0.0,47,0.00,,,0.00,0,weatherlink.com 1.10,2013-03-19 02:07:00,
2013-03-18 21:23:00,41.1,22.0,30.02,NW,313,1.0,1.0,47,0.00,,,0.00,0,weatherlink.com 1.10,2013-03-19 02:23:00,
2013-03-18 21:39:00,40.4,22.0,30.02,NW,313,0.0,1.0,47,0.00,,,0.00,0,weatherlink.com 1.10,2013-03-19 02:39:00,
2013-03-18 21:55:00,39.5,21.0,30.03,NW,313,0.0,1.0,47,0.00,,,0.00,0,weatherlink.com 1.10,2013-03-19 02:55:00,
2013-03-18 22:12:00,38.8,21.0,30.04,NW,313,0.0,0.0,48,0.00,,,0.00,0,weatherlink.com 1.10,2013-03-19 03:12:00,
2013-03-18 22:28:00,38.3,20.0,30.04,NW,313,0.0,0.0,48,0.00,,,0.00,0,weatherlink.com 1.10,2013-03-19 03:28:00,
2013-03-18 22:44:00,37.3,20.0,30.05,NW,313,0.0,0.0,50,0.00,,,0.00,0,weatherlink.com 1.10,2013-03-19 03:44:00,
2013-03-18 23:01:00,36.6,20.0,30.06,NW,313,0.0,0.0,51,0.00,,,0.00,0,weatherlink.com 1.10,2013-03-19 04:01:00,
2013-03-18 23:17:00,35.9,20.0,30.06,NW,313,0.0,0.0,51,0.00,,,0.00,0,weatherlink.com 1.10,2013-03-19 04:17:00,
2013-03-18 23:49:00,34.8,19.0,30.06,NW,313,0.0,0.0,53,0.00,,,0.00,0,weatherlink.com 1.10,2013-03-19 04:49:00,